Location: *
(51.9500°S, 179.8000°W)
Time: 00:58:36
(UTC+00:00)

Daily predictions for brighter satellites

Satellite Brightness Start Highest point End
(mag) Time Altitude Azimuth Time Altitude Azimuth Time Altitude Azimuth
USA 305 3.0 08:44:06 10° WNW 08:48:29 85° NNE 08:52:53 10° ESE
Resurs 01 Rocket 2.7 08:45:39 10° SE 08:49:33 27° E 08:53:24 10° NNE
USA 215 3.8 08:43:14 10° NE 08:49:41 53° NW 08:56:10 10° WSW
Cosmos 1680 Rocket 4.3 08:46:21 10° NNE 08:51:00 33° ENE 08:55:45 10° SE
Cosmos 1603 4.2 08:46:13 10° NW 08:51:59 70° WSW 08:57:47 10° SSE
Cosmos 1709 Rocket 4.4 08:45:47 10° S 08:52:08 54° ESE 08:58:21 10° NNE
Cosmos 158 Rocket 4.3 08:47:11 10° N 08:52:14 46° ENE 08:57:14 10° SE
Cosmos 1356 4.4 08:49:20 10° S 08:52:36 34° ESE 08:55:49 10° NE
Cosmos 1408 Rocket 4.0 08:49:24 10° S 08:53:47 49° ESE 08:58:03 10° NNE
Cosmos 1980 Rocket 4.2 08:56:00 10° SSW 09:00:09 20° SSE 09:04:15 10° ESE
USA 306 3.0 08:55:53 10° WNW 09:00:16 89° S 09:04:40 10° ESE
ATLAS CENTAUR R/B 3.3 08:59:13 10° WSW 09:03:07 51° NW 09:12:27 10° NE
Iridium 51 4.4 08:59:24 10° S 09:03:08 50° E 09:06:38 10° NNE
IRS-1A Rocket 4.4 08:58:26 10° SSE 09:04:09 68° ENE 09:09:55 10° N
FREGAT/IRIS 2.0 09:02:46 10° SSE 09:05:13 88° E 09:07:37 10° NNW
Meteor 1-27 4.3 08:59:44 10° N 09:05:20 71° E 09:11:03 10° SSE
IGS 5A 4.5 09:05:47 10° SSE 09:09:32 29° E 09:13:14 10° NNE
Cosmos 405 3.8 09:09:56 10° NNW 09:13:25 54° WSW 09:16:56 10° S
Exosat Rocket 4.4 09:08:30 10° SSW 09:13:26 45° SE 09:19:12 10° NE
Ariane Rocket 3.0 09:11:47 10° SSE 09:16:59 88° ENE 09:22:06 10° NNW
Gbstr 26 Del rocket 2.7 09:13:11 10° W 09:17:00 89° N 09:21:00 10° E
FALCON 9 DEB 3.2 09:14:40 10° NW 09:17:49 49° NNE 09:21:01 10° ESE
FALCON 9 DEB 3.3 09:14:58 10° NW 09:18:05 45° NNE 09:21:15 10° E
Cosmos 1371 Rocket 4.0 09:15:08 10° SSW 09:20:28 81° ESE 09:25:22 12° NNE
Cosmos 2056 Rocket 3.6 09:15:38 10° SSW 09:20:50 73° ESE 09:25:38 12° NNE
OBJECT-B 1.8 09:18:54 10° S 09:22:08 49° WSW 09:25:19 10° NNW
Resurs 1-3 3.6 09:18:48 10° SSE 09:23:19 83° ENE 09:27:46 10° NNW
Cosmos 1624 Rocket 4.1 09:20:35 10° SSW 09:26:02 81° ESE 09:30:56 13° NNE
Cosmos 2112 Rocket 4.2 09:23:00 10° N 09:28:06 55° ENE 09:33:17 10° SSE
Cosmos 371 Rocket 3.7 09:25:55 10° SSW 09:30:50 63° WNW 09:35:33 11° N
SAR-Lupe-2 3.6 09:27:34 13° NNE 09:30:50 82° ESE 09:34:31 10° SSW
SPOT 3 Rocket 3.6 09:28:14 10° SSE 09:33:32 65° ENE 09:38:43 10° N
Cosmos 2315 Rocket 4.1 09:27:23 10° N 09:33:35 68° E 09:39:53 10° SSE
MTI 4.3 09:31:38 16° NE 09:33:53 43° ESE 09:36:55 10° S
Cosmos 1743 Rocket 3.7 09:30:01 10° S 09:34:36 67° ESE 09:38:26 14° NNE
ASTEX 1 3.5 09:34:20 10° N 09:39:18 80° W 09:44:19 10° S
MetOp-B 4.4 09:35:34 10° SSE 09:40:54 52° E 09:46:03 11° N
Cosmos 1697 Rocket 3.5 09:36:35 10° SSW 09:42:03 44° SE 09:47:02 12° ENE
Cosmos 405 Rocket 4.2 09:38:31 10° SSW 09:42:12 35° W 09:45:53 10° NNW
Cosmos 1805 Rocket 4.2 09:38:27 10° S 09:42:51 46° ESE 09:46:09 16° NE
Thor Agena Rocket 3.9 09:42:13 15° NE 09:46:28 54° ESE 09:51:32 10° S
Cosmos 2074 Rocket 4.3 09:42:12 10° S 09:48:25 55° ESE 09:53:24 16° NNE
Cosmos 2221 2.5 09:45:02 10° N 09:49:26 85° E 09:53:52 10° SSE
Cosmos 1606 3.7 09:48:27 18° NE 09:50:44 31° E 09:54:16 10° SSE
SL-4 R/B 1.8 09:47:41 10° W 09:51:50 87° N 09:55:37 10° E
FALCON 9 DEB 2.9 09:49:35 10° WNW 09:52:50 69° NNE 09:56:08 10° ESE
Cosmos 389 Rocket 2.5 09:49:55 10° NNW 09:53:24 80° WSW 09:56:56 10° S
Cosmos 2369 4.5 09:48:42 10° SSW 09:54:15 45° SE 09:59:08 13° ENE
Cosmos 1833 Rocket 3.8 09:55:06 17° NE 09:58:07 26° ENE 10:02:43 10° SE
SPOT 1/Viking Rocket 3.8 09:52:55 10° SSE 09:58:09 54° E 10:02:27 15° N
Cosmos 1862 3.6 09:54:47 10° SSW 09:58:54 68° W 10:02:08 15° N
Cosmos 2082 Rocket 3.9 09:58:06 13° ENE 10:00:02 15° E 10:03:11 10° ESE
Cosmos 1656 3.7 09:58:51 10° SSW 10:04:35 87° WNW 10:08:49 19° NNE
SOZ 4.5 10:03:50 10° WNW 10:06:01 67° NNE 10:08:31 10° E
ARIANE 5 R/B 2.7 10:04:10 10° SSE 10:08:43 64° ENE 10:12:09 17° N
FALCON 9 DEB 2.9 10:05:40 10° WNW 10:08:57 85° NNE 10:12:15 10° ESE
Cosmos 1842 Rocket 4.1 10:05:33 10° NNW 10:09:53 59° WSW 10:14:17 10° S
CENTAUR R/B 4.3 10:06:12 10° W 10:12:56 37° SSW 10:18:44 10° SE
USA 281 3.8 10:09:07 10° SE 10:15:16 38° ENE 10:19:31 19° NNE
Cosmos 1933 4.4 10:14:10 22° NE 10:16:02 32° E 10:19:45 10° SSE
ERBS 2.8 10:13:35 10° WNW 10:17:01 64° SSW 10:20:28 10° ESE
USA 307 3.4 10:14:31 10° W 10:18:56 66° S 10:23:19 10° E
FALCON 9 DEB 3.1 10:15:28 10° WSW 10:19:02 87° NNW 10:21:34 18° ENE
Terra 2.7 10:15:44 10° SSE 10:20:10 34° E 10:22:33 22° NE
GP-B 3.3 10:17:54 10° S 10:22:28 74° W 10:25:53 17° N
SL-16 R/B 4.2 10:18:40 10° SSW 10:23:14 23° SE 10:27:45 10° E
Sich 1 3.1 10:19:10 10° S 10:23:42 83° ESE 10:26:22 24° NNE
Resurs 01 Rocket 2.8 10:21:53 10° S 10:26:11 43° WSW 10:30:27 10° NW
USA 308 3.4 10:23:13 10° W 10:27:38 66° S 10:32:02 10° E
USA 290 2.7 10:27:04 32° NNE 10:28:02 42° ENE 10:31:12 10° SE
USA 305 3.4 10:24:17 10° W 10:28:39 66° S 10:33:02 10° E
Cosmos 2322 Rocket 4.3 10:25:04 10° SSW 10:29:31 22° SE 10:33:57 10° E
Cosmos 1782 4.3 10:30:07 20° ENE 10:31:30 24° E 10:34:49 10° SE
ATLAS 3B R/B 3.6 10:27:55 10° WNW 10:35:19 58° SW 10:42:34 10° SE
Spot 2 Rocket 3.5 10:30:31 10° SSE 10:35:44 87° WSW 10:39:59 15° NNW
Cosmos 2154 Rocket 4.1 10:31:10 10° S 10:37:35 79° E 10:41:52 22° NNE
USA 306 3.3 10:36:07 10° W 10:40:29 66° S 10:44:51 10° E
Cosmos 2278 4.1 10:35:19 10° SSW 10:41:01 60° SE 10:45:02 20° NE
Resurs 1-4 Rocket 4.3 10:37:42 10° E 10:41:09 18° SE 10:44:37 10° SSE
Cosmos 1151 Rocket 3.6 10:39:29 27° NE 10:41:22 42° E 10:45:30 10° SSE
Cosmos 1980 Rocket 2.4 10:39:37 10° SSW 10:45:18 65° SE 10:49:05 21° NE
CARTOSAT-1 3.6 10:42:08 10° SSE 10:46:34 80° WSW 10:49:34 20° NNW
CZ-2D R/B 4.2 10:43:54 10° E 10:47:28 19° SE 10:51:03 10° S
Cosmos 1048 Rocket 4.3 10:45:08 25° N 10:48:04 50° ENE 10:53:18 10° SSE
Meteor 1-25 Rocket 4.2 10:43:15 10° SSW 10:48:56 89° ESE 10:52:23 25° NNE
Cosmos 2360 4.2 10:44:30 10° SSW 10:50:20 84° WNW 10:53:48 25° NNE
FALCON 9 DEB 3.1 10:50:24 10° W 10:53:41 74° S 10:56:58 10° E
FALCON 9 DEB 3.1 10:50:42 10° W 10:53:59 76° S 10:57:17 10° E
ERS-1 Rocket 3.0 10:51:30 10° SSE 10:56:39 88° WSW 11:00:06 21° NNW
Helios 1B rocket 4.4 10:54:07 12° ENE 10:56:48 21° ESE 10:59:55 10° SSE
Cosmos 1607 4.2 10:51:02 10° SW 10:56:59 56° WNW 11:00:25 25° N
Meteor 1-4 Rocket 3.0 10:58:59 24° NNW 11:01:01 58° WSW 11:04:38 10° S
Gbstr 26 Del rocket 2.7 10:59:54 10° W 11:03:43 64° NNW 11:05:58 26° ENE
SPOT 5 2.8 11:00:20 10° SSE 11:04:51 78° WSW 11:07:48 22° NNW
Cosmos 1470 Rocket 3.5 11:05:40 10° S 11:10:07 76° ESE 11:12:01 33° NNE
Cosmos 1452 Rocket 4.3 11:06:03 10° SW 11:11:06 43° WNW 11:13:54 24° NNW
Cosmos 494 Rocket 4.2 11:08:35 28° N 11:11:10 55° ENE 11:16:23 10° SSE
Cosmos 1515 Rocket 4.2 11:10:15 30° NE 11:11:54 44° E 11:16:12 10° SSE
Cosmos 1633 Rocket 3.4 11:09:54 10° SSW 11:14:20 60° W 11:16:23 30° NNW
EO 1 Del DPAF 4.1 11:13:54 28° NNW 11:15:23 41° W 11:19:03 10° SSW
Cosmos 1602 3.8 11:11:48 10° SSW 11:15:49 74° W 11:17:18 37° N
Cosmos 724 4.2 11:10:50 10° SW 11:16:41 86° NW 11:20:09 25° NE
COSMOS 2406 3.2 11:12:22 15° NNW 11:17:11 85° WSW 11:22:58 10° SSE
Meteor 1-26 Rocket 4.4 11:13:50 26° N 11:17:28 79° E 11:23:38 10° SSE
Cosmos 1666 4.1 11:14:30 10° S 11:18:01 30° ESE 11:19:40 22° ENE
Cosmos 1437 Rocket 3.8 11:18:41 29° NE 11:19:46 34° E 11:23:27 10° SSE
Cosmos 220 Rocket 4.1 11:16:44 10° SSW 11:21:17 79° ESE 11:23:17 33° NNE
USA 229 DEB 4.5 11:22:15 25° NNE 11:25:49 39° ENE 11:32:29 10° SE
USA 229 4.5 11:22:22 25° NNE 11:25:55 38° ENE 11:32:33 10° SE
Cosmos 1697 Rocket 3.4 11:20:43 10° SW 11:26:02 42° WNW 11:28:45 25° NNW
Cosmos 1812 3.6 11:26:06 31° NE 11:27:07 37° E 11:30:45 10° SSE
Cosmos 292 Rocket 4.2 11:22:28 10° SSW 11:27:17 53° WNW 11:29:23 31° N
FALCON 9 DEB 3.2 11:25:35 10° W 11:28:53 71° S 11:32:11 10° E
Cosmos 1500 3.2 11:26:23 10° S 11:30:18 77° ESE 11:31:34 41° NNE
SL-4 R/B 1.7 11:27:28 10° W 11:31:20 59° NNW 11:32:17 43° NE
CZ-4 R/B 3.8 11:32:48 33° NNE 11:34:57 87° ESE 11:39:48 10° SSW
Cosmos 1933 Rocket 3.6 11:30:40 10° S 11:35:16 89° WNW 11:37:07 36° N
PSLV R/B 3.8 11:34:36 34° NNW 11:36:17 59° WNW 11:40:43 10° SSW
deb Kosmos-1763 4.5 11:35:27 28° NW 11:37:05 58° WSW 11:40:41 10° SSE
Lacrosse 5 2.9 11:37:56 26° NE 11:38:17 26° NE 11:42:32 10° ESE
Cosmos 2369 4.4 11:33:04 10° SW 11:38:27 42° WNW 11:41:03 26° NNW
Cosmos 1833 Rocket 3.0 11:36:45 14° NW 11:41:35 68° SW 11:47:18 10° SSE
Cosmos 2082 Rocket 2.1 11:39:54 26° NNW 11:43:12 79° ENE 11:48:54 10° SSE
FALCON 9 DEB 3.2 11:41:40 10° W 11:44:57 73° S 11:48:16 10° E
ERBS 4.1 11:50:25 10° WSW 11:53:38 34° S 11:56:51 10° ESE
Cosmos 2218 Rocket 4.0 11:47:28 10° SSW 11:53:47 83° W 11:57:08 29° N
Cosmos 1242 Rocket 4.1 11:53:12 21° ENE 11:53:53 23° E 11:56:47 10° SE
Cosmos 1867 3.5 11:48:44 10° SW 11:54:10 82° NW 11:57:12 27° NE
Meteor 1-29 4.4 11:53:39 23° ENE 11:55:04 32° ESE 11:58:17 10° S
